Probability
52 39 32 13 0 0 0 0 0 0 0 0 0 0 0 0 0 0 0 10 16 23 39 48 48 48 48 48 48 42 32 29 35 39 39 45 45 42 39 35 45 48 48 48 52 55 52 52 48
45 39 19 0 0 0 0 0 0 0 0 0 0 0 0 0 0 0 3 19 23 23 26 35 52 48 48 52 45 42 35 32 32 32 39 42 39 35 39 39 42 45 42 42 52 48 45 39 39
39 39 3 0 0 0 0 0 0 0 0 0 0 0 0 0 0 0 6 16 13 19 26 39 48 52 52 48 45 35 35 39 32 23 32 35 32 32 35 39 48 45 39 39 42 39 32 35 52
29 10 0 0 0 0 0 0 0 0 0 0 0 0 0 0 0 3 6 16 13 19 19 39 42 48 45 45 42 35 39 35 32 29 29 32 32 32 32 32 35 32 32 35 35 39 48 42 42
16 0 0 0 0 0 0 0 0 0 0 0 0 0 0 0 6 6 6 10 13 16 19 26 48 39 39 42 42 35 32 32 26 29 29 29 29 32 26 29 26 29 29 29 39 45 42 39 39
3 0 0 0 0 0 0 0 0 0 0 0 0 0 3 0 6 6 6 13 13 13 23 26 48 39 39 39 35 35 29 26 23 29 23 23 23 23 26 29 26 29 35 45 39 32 39 32 29
3 0 0 0 0 0 0 0 0 0 0 0 0 0 3 0 0 3 3 10 13 16 19 23 32 45 48 42 39 35 29 29 19 23 23 26 19 26 23 23 26 29 32 32 29 35 32 29 29
3 0 0 0 0 0 0 0 0 0 3 3 3 0 0 0 0 0 3 6 10 10 16 13 23 23 26 26 45 45 29 32 29 29 23 32 23 16 19 26 29 23 23 26 23 16 19 19 19
0 0 0 0 0 0 0 0 0 3 3 3 3 3 3 3 0 0 3 6 6 10 10 16 10 13 13 16 19 29 39 29 29 16 16 16 6 3 13 23 29 29 26 26 19 19 16 16 23
0 0 0 0 0 0 0 0 0 0 0 0 3 6 3 0 0 0 3 3 10 13 10 10 10 10 6 13 13 3 3 3 3 0 3 3 3 3 3 13 29 32 32 29 26 29 23 6 0
0 0 0 0 0 0 0 0 0 0 0 0 0 6 3 0 0 3 3 6 3 6 6 10 6 6 3 3 0 0 0 0 0 0 0 3 3 3 3 3 10 10 6 6 13 10 0 0 0
0 0 0 3 0 0 0 0 0 0 0 0 0 3 3 0 0 3 3 6 3 3 3 13 10 6 3 3 3 0 0 0 0 0 0 0 0 0 0 0 0 0 0 0 0 0 0 0 0
0 0 0 3 0 0 0 0 0 0 0 0 0 0 0 0 0 0 0 3 3 3 6 6 6 3 3 3 3 3 3 0 0 0 0 0 0 0 0 0 0 0 0 0 0 0 0 0 0
0 0 0 3 0 0 0 0 0 0 0 0 0 0 0 0 0 0 0 0 3 6 3 3 0 0 3 3 3 0 3 3 3 0 0 0 0 0 0 0 0 0 0 0 0 0 0 0 0
0 0 0 0 0 0 0 0 0 0 0 0 0 0 0 0 0 0 0 0 3 3 3 3 3 0 0 6 3 0 0 0 0 0 0 0 0 0 0 0 0 0 0 0 0 0 0 0 0
0 0 0 0 0 0 0 0 0 0 0 0 0 0 0 0 0 0 0 0 0 3 3 3 3 0 0 0 0 0 0 0 0 0 0 0 0 0 0 0 0 0 0 0 0 0 0 0 0
0 0 0 0 0 0 0 0 0 0 0 0 0 0 0 0 0 0 0 0 0 3 3 3 3 0 0 0 0 0 0 0 0 0 0 0 0 0 0 0 0 0 0 0 0 0 0 0 0
0 0 0 0 0 0 0 0 0 0 0 0 0 0 0 0 0 0 0 0 0 0 3 3 3 3 0 0 0 0 0 0 0 0 0 0 0 0 0 0 0 0 0 0 0 0 0 0 0
0 0 0 0 0 0 0 0 0 0 0 0 0 0 0 0 0 0 0 0 3 0 3 3 3 3 0 0 0 0 0 0 0 0 0 0 0 0 0 0 0 0 0 0 0 0 0 0 0
0 0 0 0 0 0 0 0 0 0 0 0 0 0 0 0 0 0 0 0 3 3 3 3 3 3 3 0 0 0 0 0 0 0 0 0 0 0 0 0 0 0 0 0 0 0 0 0 0
0 0 0 0 0 0 0 0 0 0 0 0 0 0 0 0 0 0 0 0 0 0 3 6 3 3 3 0 0 0 0 0 0 0 0 0 0 0 0 0 0 0 0 0 0 0 0 0 0
0 0 0 0 0 0 0 0 0 0 0 0 0 0 0 0 0 0 3 0 0 0 0 0 6 3 0 0 0 0 0 0 0 0 0 0 0 0 0 0 0 0 0 0 0 0 0 0 0
0 0 0 0 0 0 0 0 0 0 0 0 0 0 0 0 0 0 0 0 0 0 0 0 6 3 0 0 0 0 0 0 0 0 0 0 0 0 0 0 0 0 0 0 0 0 0 0 0
0 0 0 0 0 0 0 0 0 0 0 0 0 0 0 0 0 0 0 3 0 0 0 3 3 3 0 0 0 0 0 0 0 0 0 0 0 0 0 0 0 0 0 0 0 0 0 0 0
0 0 0 0 0 0 0 0 0 0 0 0 0 0 0 0 0 0 0 0 3 3 0 3 3 3 0 0 0 0 0 0 0 0 0 0 0 0 0 0 0 0 0 0 0 0 0 0 0
0 0 0 0 0 0 0 0 0 0 0 0 0 0 0 0 0 0 0 0 3 3 3 0 3 3 0 0 0 0 0 0 0 0 0 0 0 0 0 0 0 0 0 0 0 0 0 0 0
0 0 0 0 0 0 0 0 0 0 0 0 0 0 0 0 0 0 0 0 3 3 3 3 3 3 3 0 0 0 0 0 0 0 0 0 0 0 0 0 0 0 0 0 0 0 0 0 0
0 0 0 0 0 0 0 0 0 0 0 0 0 0 0 0 0 0 0 0 0 0 0 0 0 3 3 3 0 0 0 0 0 0 0 0 0 0 0 0 0 0 0 0 0 0 0 0 0
0 0 0 0 0 0 0 0 0 0 0 0 0 0 0 0 0 0 0 0 0 0 0 0 0 0 3 3 0 0 0 0 0 0 0 0 0 0 0 0 0 0 0 0 0 0 0 0 0
0 0 0 0 0 0 0 0 0 0 0 0 0 0 0 0 0 0 0 0 0 0 0 0 0 0 0 3 0 0 0 0 0 0 0 0 0 0 0 0 3 0 0 0 0 0 0 0 0
Height
5895 5895 5895 5895 5895 5894 5893 5893 5891 5890 5890 5889 5888 5888 5887 5887 5888 5889 5886 5884 5883 5883 5882 5882 5881 5881 5881 5881 5881 5880 5880 5880 5880 5880 5879 5879 5879 5879 5879 5879 5878 5878 5878 5878 5878 5878 5878 5877 5877
5895 5895 5896 5895 5895 5894 5894 5892 5891 5890 5890 5889 5888 5888 5887 5886 5886 5885 5884 5883 5882 5882 5881 5880 5880 5880 5879 5879 5879 5879 5879 5878 5878 5878 5878 5877 5877 5877 5877 5877 5877 5876 5876 5876 5876 5876 5876 5876 5876
5895 5895 5896 5895 5894 5894 5894 5892 5891 5890 5889 5888 5888 5887 5886 5886 5885 5884 5883 5882 5881 5880 5880 5879 5879 5878 5878 5878 5877 5877 5877 5877 5876 5876 5876 5876 5875 5875 5875 5875 5875 5875 5875 5874 5874 5874 5874 5874 5874
5895 5896 5896 5895 5894 5893 5892 5891 5890 5889 5888 5888 5887 5886 5885 5885 5884 5882 5881 5880 5880 5879 5878 5878 5877 5877 5876 5876 5875 5875 5875 5874 5874 5874 5874 5874 5873 5873 5873 5873 5873 5873 5873 5873 5873 5873 5873 5873 5872
5895 5895 5895 5894 5893 5893 5891 5891 5890 5889 5888 5887 5887 5885 5884 5884 5883 5881 5880 5879 5878 5877 5877 5876 5875 5875 5874 5874 5874 5873 5873 5872 5872 5872 5872 5871 5871 5871 5871 5871 5871 5871 5871 5871 5871 5871 5871 5871 5871
5895 5895 5895 5893 5893 5892 5891 5890 5890 5889 5888 5886 5886 5885 5883 5883 5881 5880 5879 5877 5877 5876 5875 5874 5874 5873 5872 5872 5872 5871 5871 5871 5870 5870 5870 5869 5869 5869 5869 5869 5869 5869 5869 5869 5869 5869 5869 5869 5869
5895 5895 5894 5893 5892 5891 5891 5889 5889 5888 5887 5886 5885 5884 5882 5881 5880 5879 5877 5876 5875 5874 5873 5873 5872 5871 5871 5870 5870 5869 5869 5869 5868 5868 5867 5867 5867 5867 5867 5866 5867 5867 5867 5867 5867 5867 5867 5867 5867
5894 5895 5893 5892 5891 5891 5890 5889 5888 5887 5886 5885 5884 5883 5881 5880 5879 5877 5876 5875 5874 5873 5872 5871 5870 5870 5869 5868 5868 5867 5867 5867 5866 5866 5865 5865 5865 5865 5864 5864 5864 5864 5864 5864 5865 5865 5865 5864 5864
5893 5894 5892 5892 5891 5890 5889 5888 5887 5886 5885 5884 5883 5881 5880 5879 5878 5876 5875 5874 5872 5871 5870 5870 5869 5868 5867 5866 5866 5865 5865 5864 5864 5863 5863 5863 5862 5862 5862 5862 5862 5862 5862 5862 5862 5862 5862 5862 5862
5892 5892 5891 5891 5890 5889 5888 5887 5886 5885 5884 5883 5882 5880 5879 5878 5876 5874 5873 5872 5871 5869 5868 5868 5867 5866 5865 5864 5864 5863 5863 5862 5862 5861 5861 5861 5860 5860 5860 5860 5860 5860 5860 5860 5860 5860 5860 5860 5860
5890 5890 5890 5889 5888 5888 5887 5886 5885 5884 5883 5881 5880 5879 5878 5876 5875 5873 5871 5870 5869 5868 5866 5866 5865 5864 5863 5863 5862 5861 5861 5860 5860 5859 5859 5858 5858 5858 5858 5858 5858 5858 5858 5858 5858 5858 5858 5858 5858
5889 5889 5888 5887 5887 5886 5886 5885 5884 5883 5882 5880 5879 5877 5876 5875 5873 5872 5870 5869 5868 5866 5865 5864 5863 5862 5862 5861 5860 5860 5859 5858 5858 5857 5857 5856 5856 5856 5856 5856 5856 5856 5856 5856 5856 5856 5856 5856 5856
5887 5887 5886 5886 5885 5885 5884 5883 5882 5882 5881 5879 5877 5876 5874 5873 5872 5870 5869 5867 5866 5864 5863 5863 5862 5861 5860 5859 5858 5858 5857 5856 5855 5855 5855 5854 5854 5854 5854 5854 5854 5854 5854 5854 5854 5854 5854 5854 5854
5885 5885 5885 5884 5883 5883 5882 5882 5881 5880 5879 5878 5876 5875 5873 5871 5870 5869 5867 5865 5864 5863 5862 5861 5860 5859 5858 5857 5857 5856 5855 5854 5853 5853 5853 5853 5852 5852 5852 5852 5852 5852 5852 5852 5852 5852 5852 5852 5852
5883 5883 5883 5882 5881 5881 5881 5880 5879 5878 5877 5876 5874 5873 5871 5870 5869 5867 5866 5864 5863 5861 5860 5859 5858 5857 5857 5856 5855 5854 5853 5852 5851 5851 5851 5850 5850 5850 5850 5850 5850 5850 5850 5850 5850 5850 5850 5850 5850
5880 5880 5880 5880 5879 5879 5880 5878 5877 5876 5875 5874 5872 5871 5870 5869 5867 5866 5864 5863 5861 5860 5859 5858 5857 5856 5855 5854 5853 5852 5851 5850 5849 5849 5849 5848 5848 5849 5849 5849 5849 5849 5849 5848 5849 5849 5849 5849 5849
5877 5877 5877 5877 5877 5876 5876 5876 5875 5874 5873 5872 5871 5870 5869 5867 5866 5864 5863 5861 5860 5859 5858 5857 5856 5854 5853 5852 5851 5850 5849 5848 5848 5847 5847 5846 5846 5847 5847 5847 5847 5847 5847 5847 5847 5847 5847 5847 5847
5874 5874 5874 5874 5874 5874 5873 5873 5872 5871 5870 5870 5869 5868 5867 5866 5864 5863 5861 5860 5859 5857 5856 5855 5854 5853 5852 5851 5849 5848 5847 5847 5846 5845 5845 5845 5845 5845 5845 5845 5845 5846 5845 5845 5845 5845 5845 5845 5845
5870 5870 5870 5871 5870 5870 5870 5870 5869 5868 5868 5867 5867 5866 5865 5864 5862 5861 5859 5858 5857 5856 5855 5854 5853 5851 5850 5849 5848 5847 5846 5845 5844 5844 5843 5843 5843 5843 5843 5843 5844 5844 5844 5844 5844 5843 5843 5843 5843
5866 5867 5867 5867 5867 5867 5867 5867 5866 5865 5865 5864 5864 5863 5862 5861 5860 5859 5857 5856 5855 5854 5853 5852 5851 5849 5848 5847 5846 5845 5844 5843 5842 5842 5841 5841 5841 5841 5842 5842 5842 5842 5842 5842 5842 5842 5841 5841 5842
5863 5863 5863 5863 5863 5863 5863 5863 5863 5862 5862 5861 5861 5860 5859 5859 5858 5857 5855 5854 5853 5852 5851 5850 5849 5848 5847 5846 5845 5844 5842 5842 5841 5841 5840 5839 5839 5840 5840 5840 5840 5840 5840 5840 5840 5840 5840 5840 5840
5859 5860 5860 5860 5860 5859 5860 5859 5860 5859 5858 5858 5857 5857 5856 5856 5855 5854 5853 5852 5850 5850 5848 5848 5847 5846 5845 5844 5843 5842 5841 5840 5839 5839 5838 5838 5838 5838 5838 5838 5838 5838 5838 5838 5838 5838 5838 5838 5838
5856 5856 5856 5856 5856 5856 5856 5856 5857 5855 5855 5855 5854 5853 5853 5852 5852 5851 5850 5849 5848 5847 5846 5845 5844 5843 5842 5841 5840 5840 5839 5838 5837 5837 5836 5836 5836 5836 5836 5836 5836 5836 5836 5836 5836 5836 5836 5836 5836
5852 5852 5852 5852 5852 5853 5853 5852 5853 5852 5852 5852 5851 5850 5849 5849 5848 5848 5847 5846 5845 5844 5843 5842 5841 5840 5839 5838 5837 5837 5836 5836 5835 5835 5835 5834 5834 5834 5833 5833 5834 5834 5834 5834 5834 5834 5834 5834 5835
5849 5849 5849 5848 5848 5849 5849 5848 5849 5849 5849 5848 5847 5847 5846 5846 5845 5844 5843 5843 5842 5841 5840 5839 5838 5837 5836 5835 5834 5834 5833 5833 5833 5832 5832 5832 5831 5831 5831 5831 5831 5831 5832 5832 5832 5832 5832 5832 5832
5844 5845 5846 5846 5845 5845 5845 5844 5846 5845 5845 5844 5844 5843 5843 5842 5841 5840 5840 5839 5838 5837 5836 5835 5835 5833 5832 5831 5830 5830 5830 5829 5829 5829 5829 5829 5828 5828 5828 5828 5828 5829 5829 5829 5830 5830 5830 5830 5830
5840 5840 5841 5841 5841 5841 5841 5841 5841 5841 5841 5840 5840 5839 5839 5838 5837 5836 5836 5835 5834 5833 5832 5831 5830 5829 5828 5827 5826 5826 5826 5825 5825 5825 5825 5825 5825 5825 5825 5825 5826 5826 5826 5827 5827 5828 5828 5828 5828
5836 5836 5837 5836 5836 5836 5837 5836 5837 5837 5837 5836 5836 5835 5835 5834 5833 5832 5831 5831 5830 5829 5828 5827 5826 5825 5824 5823 5822 5822 5821 5821 5821 5822 5822 5822 5822 5822 5822 5822 5823 5823 5823 5824 5825 5825 5825 5826 5826
5831 5832 5831 5832 5832 5832 5832 5834 5833 5833 5832 5832 5831 5831 5830 5830 5829 5828 5827 5826 5825 5824 5823 5822 5821 5820 5819 5818 5817 5817 5817 5817 5817 5817 5818 5818 5818 5818 5819 5819 5819 5820 5820 5821 5822 5822 5823 5823 5823
5825 5826 5827 5827 5827 5827 5827 5831 5828 5828 5827 5827 5826 5826 5825 5825 5824 5823 5821 5820 5819 5818 5817 5816 5815 5814 5813 5813 5812 5812 5812 5812 5812 5813 5813 5814 5814 5815 5815 5815 5816 5816 5817 5818 5818 5819 5819 5820 5820
Wind_Speed
2 3 2 2 2 2 3 3 4 4 4 4 4 4 4 3 3 4 4 4 5 5 5 5 6 6 6 7 7 8 8 8 8 9 9 9 9 10 10 10 9 9 10 10 9 9 8 7 8
2 2 2 2 2 2 3 4 4 4 5 5 5 5 4 4 4 4 4 5 6 6 6 6 7 7 8 8 8 8 9 9 9 9 10 10 10 10 11 11 10 11 11 10 9 9 9 9 8
2 2 2 2 2 2 3 4 4 5 5 5 5 5 5 4 5 5 5 5 6 6 6 7 7 8 8 9 9 9 9 10 10 10 10 10 10 10 11 11 11 11 12 11 10 10 10 9 9
2 2 3 3 2 2 3 4 5 5 5 5 6 6 6 5 5 6 6 6 6 6 7 7 7 8 9 9 10 10 10 10 10 10 10 10 10 10 10 10 11 11 10 10 10 10 10 10 9
2 3 3 3 2 3 3 4 5 5 6 6 6 6 6 6 6 6 7 6 7 7 8 7 8 8 8 9 9 9 10 9 10 10 11 10 10 10 10 10 11 10 10 10 10 10 10 10 10
2 3 3 3 3 3 4 5 5 5 6 6 7 7 7 8 7 7 7 7 7 7 7 7 7 7 8 8 8 8 9 9 9 9 9 9 9 9 10 10 11 11 10 10 10 10 10 10 10
3 4 3 4 4 4 5 6 6 6 6 6 7 7 8 8 8 8 7 7 7 7 7 7 7 7 8 8 8 8 8 8 9 9 9 9 9 9 9 9 10 10 10 10 10 10 10 10 10
5 4 3 3 3 4 5 6 6 6 6 7 7 8 8 9 8 8 7 7 7 7 7 7 7 8 8 8 8 8 8 8 8 9 8 8 8 8 9 9 9 9 10 10 10 10 10 10 9
5 5 4 3 4 5 6 6 6 6 6 7 8 8 8 9 8 8 8 8 7 7 7 7 6 7 8 8 8 8 8 8 8 9 8 8 8 8 8 9 9 9 10 10 10 11 11 10 9
6 5 5 4 5 5 5 6 6 6 7 8 7 7 8 9 9 9 8 8 7 7 7 7 6 7 7 7 8 8 8 8 8 8 8 8 8 8 8 9 9 9 10 10 10 10 10 10 10
7 6 5 5 5 5 6 6 7 7 7 8 8 8 8 9 9 9 9 9 8 8 8 7 7 8 7 6 7 8 8 8 8 8 8 7 7 7 7 8 9 9 9 9 9 9 9 10 10
7 6 6 5 6 6 6 6 7 7 8 9 9 9 9 9 9 9 9 9 8 8 8 8 7 7 8 7 7 7 7 8 8 8 8 8 7 7 7 8 8 8 8 8 8 8 8 8 9
8 7 7 6 6 6 6 6 7 8 8 8 9 9 9 10 9 10 9 9 9 8 8 7 7 7 7 7 7 8 7 7 8 8 8 8 7 7 7 8 8 8 8 7 7 7 7 8 8
9 9 8 8 8 8 8 8 8 8 8 8 9 9 9 9 9 10 9 9 9 8 8 8 8 7 7 8 8 8 7 7 7 7 7 7 7 7 7 7 8 7 7 7 7 7 7 7 8
10 10 9 9 9 8 8 8 8 9 9 9 9 10 9 9 10 10 9 9 9 8 8 8 8 8 8 8 8 8 8 7 7 7 7 7 7 6 6 7 7 7 7 6 6 7 7 7 7
11 11 11 10 9 9 9 9 9 9 9 9 9 9 10 10 10 10 9 8 8 7 8 7 8 8 8 8 9 8 8 7 6 6 7 7 7 6 6 6 7 6 7 7 7 7 8 7 7
12 11 11 11 10 10 10 10 10 10 9 9 9 9 9 10 9 10 9 8 7 7 7 7 8 8 8 8 9 8 8 7 6 6 6 6 7 6 6 6 7 7 8 8 8 8 8 8 7
13 12 12 11 12 12 11 10 11 11 10 9 9 9 9 10 10 10 9 9 8 7 8 8 8 8 9 9 8 7 7 6 6 6 6 6 6 6 6 6 6 7 7 7 7 8 7 7 7
14 14 13 12 13 13 12 11 12 12 11 10 10 10 10 10 10 10 10 9 8 8 8 8 9 9 9 9 8 7 7 6 6 6 6 7 7 7 7 7 7 7 7 7 7 7 7 7 7
14 15 14 13 13 14 13 12 12 13 12 11 11 10 10 10 10 10 10 10 9 9 9 9 9 9 9 9 8 8 7 7 5 5 6 6 6 6 6 6 6 7 7 7 7 7 7 7 7
14 14 14 14 14 14 13 12 12 12 12 12 12 11 11 11 10 10 10 9 9 9 9 9 9 9 8 8 8 8 8 7 6 6 6 6 5 6 6 6 7 7 7 7 7 7 7 7 7
14 14 14 14 14 13 13 12 11 12 12 12 12 12 12 11 11 10 10 10 10 10 10 10 10 10 9 9 9 8 8 7 7 6 6 6 6 6 6 7 7 7 6 7 7 7 6 6 6
14 13 14 13 13 13 12 13 10 10 10 11 11 12 12 12 11 11 11 11 11 11 11 11 11 11 10 10 10 9 8 8 7 7 6 6 6 6 7 7 7 8 8 7 7 6 6 6 6
14 13 13 13 13 13 12 13 11 10 10 10 11 11 12 12 11 11 11 12 12 12 12 12 12 12 12 11 10 10 9 9 9 8 8 8 7 7 8 8 9 9 9 8 7 7 7 7 7
14 14 14 14 13 13 13 14 13 11 11 11 11 11 11 12 11 11 12 13 13 13 13 13 13 13 13 12 12 11 11 10 10 10 9 9 9 9 9 9 9 9 9 9 8 7 7 7 7
15 15 15 15 14 14 14 14 13 13 13 12 12 12 12 12 12 12 13 14 14 14 14 14 14 14 14 13 13 13 12 11 11 11 10 10 9 9 9 9 10 10 10 10 9 8 8 8 7
16 16 16 16 16 15 15 15 14 14 14 14 14 14 14 14 14 14 14 15 15 15 15 16 16 15 15 15 14 14 13 12 11 11 11 11 10 9 9 10 10 10 10 10 10 10 9 8 8
16 16 16 17 17 17 16 16 16 16 16 17 17 16 16 15 15 15 16 16 16 17 17 17 17 17 17 16 15 14 14 13 13 13 12 12 11 11 10 10 10 10 10 11 10 10 10 9 9
17 17 18 18 19 19 18 18 17 17 17 17 18 17 17 16 16 16 17 17 17 17 17 18 18 17 17 17 16 16 16 15 14 14 14 13 13 12 12 11 11 11 10 11 11 11 10 10 9
18 18 19 19 20 20 20 19 19 19 18 19 18 18 18 18 17 17 18 18 18 18 18 18 18 18 18 18 18 17 17 17 16 15 15 15 14 13 13 13 12 12 12 11 11 11 11 11 10
Wind_Direction
64 65 65 53 32 24 30 33 32 31 26 19 9 359 346 337 328 320 308 300 298 294 290 288 284 281 278 274 272 274 277 276 274 271 269 265 262 262 261 264 263 257 257 260 255 253 253 256 257
33 40 33 4 346 356 8 27 29 20 15 15 11 359 347 335 328 320 310 302 296 296 291 289 288 286 281 279 275 273 275 275 273 274 273 268 264 263 263 263 262 257 257 254 255 256 256 255 259
358 1 351 334 341 353 7 25 26 18 9 4 1 357 350 337 329 322 312 310 302 298 293 291 288 288 287 283 280 278 274 274 274 275 274 270 267 266 265 264 262 259 261 256 257 257 255 255 259
350 341 319 309 345 8 10 17 21 14 8 358 353 355 348 339 336 328 319 312 307 300 297 292 289 287 285 284 283 283 276 273 273 275 275 274 269 267 266 264 261 258 260 261 262 259 258 259 261
331 326 313 309 334 359 5 6 10 9 360 355 352 351 348 341 336 332 325 319 310 304 300 293 288 288 287 285 286 285 279 274 275 276 278 277 273 270 267 265 258 256 261 263 261 262 263 261 262
305 307 309 316 338 355 5 2 3 358 352 350 347 346 346 341 336 336 330 322 314 311 307 297 290 287 291 289 287 286 284 279 278 278 279 276 274 271 267 265 258 257 261 262 261 262 265 266 267
292 297 304 314 330 343 348 350 352 347 345 344 342 341 343 340 340 337 332 325 316 314 312 304 295 289 289 289 288 285 284 283 280 278 278 275 270 270 269 267 261 261 262 263 261 261 264 267 268
282 285 294 305 320 336 345 345 343 344 341 338 337 336 338 341 340 336 331 326 319 313 314 308 300 288 287 290 286 283 284 283 281 279 276 273 272 269 269 267 263 262 262 263 263 264 262 265 265
277 280 294 303 314 330 339 342 341 340 337 337 335 334 336 339 340 336 331 327 320 311 308 310 305 299 295 290 287 287 286 285 282 279 278 276 278 272 268 266 264 265 264 264 266 264 262 262 264
280 283 291 301 308 318 330 333 334 337 335 334 334 336 335 335 337 337 336 333 324 311 304 304 305 303 302 298 294 290 288 286 283 281 281 283 283 275 270 268 267 268 267 266 266 266 263 262 263
279 286 289 296 302 305 312 318 324 329 329 330 334 334 333 331 333 333 331 330 326 314 307 303 300 302 305 305 305 300 292 289 285 281 279 282 283 277 271 267 269 272 269 264 263 267 267 266 265
275 282 286 294 299 301 304 309 316 322 325 327 332 333 331 330 329 329 324 323 324 318 309 306 300 301 304 299 302 306 297 291 285 280 280 279 276 273 269 268 270 271 269 264 262 267 267 266 268
269 272 278 282 285 292 300 306 310 316 320 322 327 331 330 327 326 328 326 324 323 319 310 307 306 304 302 306 304 305 301 294 285 282 279 282 276 269 268 269 270 268 264 261 260 264 263 264 270
264 265 270 273 276 283 290 300 304 309 314 319 322 328 327 325 326 327 327 326 324 317 308 307 303 308 308 313 310 306 302 295 289 282 277 277 275 272 271 270 268 267 264 256 258 261 262 264 267
264 265 265 267 272 278 280 289 300 307 312 318 322 325 327 327 328 328 325 324 322 317 311 311 306 305 305 308 309 306 303 298 291 283 274 270 269 268 271 267 264 262 258 255 259 263 267 268 264
264 264 264 264 267 274 278 284 296 304 309 313 318 324 325 326 327 328 326 323 321 319 317 319 317 310 308 308 308 307 304 300 291 287 276 268 262 261 268 262 260 259 260 263 263 266 270 271 263
262 263 264 264 267 272 276 282 288 295 302 308 313 317 321 323 325 324 325 325 320 318 316 319 319 319 316 314 309 306 300 298 295 295 289 272 259 259 267 271 261 255 260 264 265 269 272 272 264
265 266 267 266 267 273 276 279 283 291 295 300 306 310 314 316 317 318 319 319 315 312 312 314 315 319 322 320 319 312 304 297 294 292 284 278 264 261 266 268 266 260 259 264 265 269 270 268 265
264 267 267 266 268 271 275 280 283 288 291 296 302 306 308 311 314 313 312 312 311 314 313 311 311 312 316 320 318 316 307 300 296 293 287 280 269 262 267 267 265 260 261 266 268 271 269 267 264
263 265 267 268 267 269 273 278 282 283 287 291 294 298 303 304 307 310 310 309 308 307 310 311 312 312 313 314 316 317 311 305 297 295 294 282 268 261 267 266 263 260 266 269 273 273 270 268 264
263 265 267 269 270 273 275 275 277 279 282 285 288 292 297 298 299 301 304 305 305 303 303 306 308 310 309 306 308 312 310 308 295 295 291 281 272 263 264 267 262 260 264 269 272 270 272 267 263
262 264 266 267 268 271 276 278 276 278 281 283 286 289 291 293 291 292 296 299 300 299 297 300 303 304 302 302 301 301 303 303 301 296 296 281 274 271 267 264 260 261 263 266 268 267 268 265 262
260 263 264 264 265 267 271 274 272 278 280 282 285 288 288 288 286 287 290 294 296 296 295 296 297 298 299 298 297 295 293 293 295 296 293 289 274 269 266 261 261 261 261 260 263 260 262 262 262
257 260 261 261 262 262 267 272 272 276 279 285 290 289 289 287 284 286 288 291 293 293 293 296 296 296 296 295 293 290 287 285 286 285 284 283 274 265 264 261 261 263 261 258 259 258 260 261 263
256 256 259 260 259 260 266 272 278 282 285 288 291 293 291 288 285 286 288 289 290 291 291 293 292 292 292 291 288 283 280 278 279 277 279 280 274 264 261 256 258 261 259 257 257 254 259 262 261
257 256 257 260 261 262 265 272 279 282 285 289 291 292 291 289 288 288 288 288 288 289 290 291 291 290 288 286 284 279 277 274 274 274 275 276 273 262 255 255 256 255 254 254 254 252 258 261 260
253 255 257 259 262 264 265 270 275 279 287 290 291 291 293 291 290 289 288 287 287 287 288 289 289 288 286 284 281 277 276 272 271 272 274 273 270 263 257 256 252 249 251 255 253 249 253 258 260
252 254 254 257 261 265 267 268 273 278 284 289 290 291 292 291 289 289 287 285 285 285 286 286 286 286 284 282 278 273 272 270 269 268 270 268 264 261 259 255 249 250 251 252 254 252 253 255 257
254 253 255 258 261 265 266 267 273 277 280 284 287 287 289 288 286 286 286 285 284 283 284 285 285 284 282 279 275 271 269 266 266 267 268 264 262 261 258 254 250 250 252 252 253 252 252 254 255
254 252 255 257 262 266 267 267 269 271 275 279 283 284 287 287 288 288 286 285 284 284 283 284 284 282 279 276 272 268 265 263 262 262 262 261 261 258 256 253 248 248 248 247 249 251 253 254 256